Home > Weather > Fort Bragg > Past weeks

Flag for USA Past Weather in Fort Bragg, California, USA — Yesterday and Last 2 Weeks

Now
69 °F

Clear.


Feels Like: 69 °F
Forecast: 54 / 68 °F
Wind: No wind

Location: Ukiah Municipal

Current Time: Jun 27, 2016 at 12:46:33 AM

Latest Report: Jun 26, 2016 at 11:56 PM


Visibility: 10 mi

Pressure: 29.99 "Hg

Humidity: 44%

Dew Point: 46 °F

Location of Fort BraggLocation

Past Weather in Fort Bragg — Graph

°F

Fort Bragg Temperature Yesterday

Maximum temperature yesterday: 97 °F (at 1:56 PM)
Minimum temperature yesterday: 55 °F (at 5:56 AM)
Average temperature yesterday: 77 °F

High & Low Weather Summary for the Past Weeks

 TemperatureHumidityPressure
High97 °F (Jun 26, 1:56 PM)93% (Jun 16, 11:56 PM)30.21 "Hg (Jun 16, 11:56 PM)
Low48 °F (Jun 15, 4:56 AM)8% (Jun 26, 1:56 PM)29.89 "Hg (Jun 25, 5:56 PM)
Average67 °F52%30.01 "Hg
* Reported Jun 11 11:56 PM — Jun 26 11:56 PM, Fort Bragg, Weather by CustomWeather, © 2016

Note: Actual official high and low records may vary slightly from our data, if they occured in-between our weather recording intervals... More about our weather records

Advertising

Fort Bragg Weather History for the Previous 24 Hours

Scroll right to see more
 ConditionsComfort  
Time TempWeatherWind HumidityBarometerVisibility
11:56 PM
Sun, Jun 26
69 °FClear.No wind44%29.99 "Hg10 mi
10:56 PM73 °FClear.No wind36%29.99 "Hg10 mi
9:56 PM76 °FClear.No wind30%29.98 "Hg10 mi
8:56 PM77 °FSunny.5 mph29%29.98 "Hg10 mi
7:56 PM86 °FSunny.9 mph17%29.97 "Hg10 mi
6:56 PM89 °FSunny.10 mph20%29.96 "Hg10 mi
5:56 PM93 °FSunny.7 mph13%29.95 "Hg10 mi
4:56 PM94 °FSunny.16 mph13%29.94 "Hg10 mi
3:56 PM96 °FSunny.12 mph14%29.94 "Hg10 mi
2:56 PM97 °FSunny.12 mph11%29.94 "Hg10 mi
1:56 PM97 °FSunny.10 mph8%29.95 "Hg10 mi
12:56 PM94 °FSunny.8 mph14%29.96 "Hg10 mi
11:56 AM89 °FSunny.6 mph23%29.96 "Hg10 mi
10:56 AM84 °FSunny.No wind29%29.97 "Hg10 mi
9:56 AM78 °FSunny.No wind37%29.98 "Hg10 mi
8:56 AM72 °FSunny.5 mph43%29.99 "Hg10 mi
7:56 AM63 °FSunny.No wind60%29.99 "Hg10 mi
6:56 AM58 °FSunny.No wind70%29.98 "Hg10 mi
5:56 AM55 °FClear.No wind74%29.96 "Hg10 mi
4:56 AM56 °FClear.No wind72%29.95 "Hg10 mi
3:56 AM59 °FClear.No wind64%29.94 "Hg10 mi
2:56 AM59 °FClear.No wind67%29.94 "Hg10 mi
1:56 AM64 °FClear.No wind54%29.94 "Hg10 mi
12:56 AM67 °FClear.3 mph41%29.95 "Hg10 mi
Weather by CustomWeather, © 2016

See weather overviewHow to use our weather pages